Location: Sungai Bunut
(2.6333°N, 113.7333°E)
Time: 11:13:51
(UTC+00:00)

Transit 2A - Pass Details

Date: 07 December 2023
Orbit: 599 x 953 km, 66.7° (Epoch: 01 March)

Event Time Altitude Azimuth Distance (km) Brightness Sun altitude
Rises 17:40:37 0° 339° (NNW) 2,929 - -61.4°
Reaches altitude 10° 17:42:48 10° 338° (NNW) 2,060 - -61.1°
Maximum altitude 17:47:27 84° 250° (WSW) 707 - -60.2°
Drops below altitude 10° 17:52:38 10° 162° (SSE) 2,281 - -59.3°
Sets 17:55:09 0° 161° (SSE) 3,269 - -58.8°
